Météo par heure à Jurczyce

Ce jour, 20 Juin, Dimanche

Heure Température Précipitation Vent Pression Humidité
00:00 +23°C° 0 mm 2 m/s 748 mmHg 76%
01:00 +21°C° 0 mm 2 m/s 748 mmHg 79%
02:00 +20°C° 0 mm 2 m/s 748 mmHg 80%
03:00 +20°C° 0 mm 2 m/s 747 mmHg 82%
04:00 +19°C° 0 mm 2 m/s 747 mmHg 83%
05:00 +21°C° 0 mm 2 m/s 747 mmHg 79%
06:00 +24°C° 0 mm 3 m/s 747 mmHg 75%
07:00 +25°C° 0 mm 3 m/s 747 mmHg 71%
08:00 +27°C° 0 mm 3 m/s 747 mmHg 66%
09:00 +28°C° 0 mm 3 m/s 747 mmHg 61%
10:00 +30°C° 0 mm 3 m/s 747 mmHg 56%
11:00 +31°C° 0 mm 2 m/s 747 mmHg 53%
12:00 +32°C° 0 mm 2 m/s 747 mmHg 49%
13:00 +32°C° 0 mm 2 m/s 746 mmHg 45%
14:00 +32°C° 0 mm 2 m/s 746 mmHg 46%
15:00 +32°C° 0 mm 2 m/s 746 mmHg 47%
16:00 +32°C° 0 mm 2 m/s 745 mmHg 48%
17:00 +31°C° 0 mm 2 m/s 745 mmHg 55%
18:00 +29°C° 0 mm 3 m/s 745 mmHg 61%
19:00 +28°C° 0 mm 3 m/s 744 mmHg 68%
20:00 +26°C° 0 mm 3 m/s 745 mmHg 69%
21:00 +25°C° 0 mm 3 m/s 745 mmHg 71%
22:00 +24°C° 0 mm 3 m/s 745 mmHg 72%
23:00 +22°C° 0 mm 3 m/s 745 mmHg 74%

Demain, 21 Juin, Lundi

Heure Température Précipitation Vent Pression Humidité
00:00 +21°C° 0 mm 3 m/s 744 mmHg 76%
01:00 +21°C° 0 mm 3 m/s 744 mmHg 78%
02:00 +20°C° 0 mm 3 m/s 744 mmHg 80%
03:00 +20°C° 0 mm 3 m/s 744 mmHg 82%
04:00 +19°C° 0 mm 3 m/s 743 mmHg 84%
05:00 +21°C° 0 mm 3 m/s 743 mmHg 79%
06:00 +24°C° 0 mm 3 m/s 744 mmHg 74%
07:00 +26°C° 0 mm 3 m/s 744 mmHg 70%
08:00 +27°C° 0 mm 3 m/s 744 mmHg 65%
09:00 +29°C° 0 mm 3 m/s 744 mmHg 60%
10:00 +30°C° 0 mm 3 m/s 743 mmHg 55%
11:00 +31°C° 0 mm 2 m/s 743 mmHg 52%
12:00 +32°C° 0 mm 2 m/s 743 mmHg 50%
13:00 +34°C° 0 mm 2 m/s 743 mmHg 47%
14:00 +31°C° 1.2 mm 3 m/s 743 mmHg 56%
15:00 +29°C° 1.2 mm 4 m/s 742 mmHg 64%
16:00 +27°C° 1.2 mm 5 m/s 742 mmHg 73%
17:00 +25°C° 8.8 mm 4 m/s 743 mmHg 80%
18:00 +22°C° 8.8 mm 4 m/s 744 mmHg 88%
19:00 +20°C° 8.8 mm 4 m/s 745 mmHg 95%
20:00 +19°C° 0.9 mm 3 m/s 745 mmHg 95%
21:00 +19°C° 0.9 mm 2 m/s 745 mmHg 95%
22:00 +19°C° 0.9 mm 2 m/s 744 mmHg 95%
23:00 +20°C° 0 mm 1 m/s 745 mmHg 94%

Après-demain, 22 Juin, Mardi

Heure Température Précipitation Vent Pression Humidité
00:00 +19°C° 0 mm 1 m/s 745 mmHg 94%
01:00 +19°C° 0 mm 1 m/s 745 mmHg 94%
02:00 +19°C° 0 mm 1 m/s 746 mmHg 95%
03:00 +18°C° 0 mm 2 m/s 746 mmHg 96%
04:00 +17°C° 0 mm 2 m/s 746 mmHg 96%
05:00 +18°C° 0 mm 3 m/s 746 mmHg 95%
06:00 +19°C° 0 mm 3 m/s 747 mmHg 93%
07:00 +19°C° 0 mm 3 m/s 747 mmHg 92%
08:00 +20°C° 0 mm 3 m/s 747 mmHg 89%
09:00 +20°C° 0 mm 3 m/s 748 mmHg 85%
10:00 +21°C° 0 mm 3 m/s 748 mmHg 82%
11:00 +22°C° 0 mm 3 m/s 748 mmHg 78%
12:00 +24°C° 0 mm 2 m/s 748 mmHg 73%
13:00 +25°C° 0 mm 2 m/s 748 mmHg 68%
14:00 +26°C° 0 mm 2 m/s 748 mmHg 66%
15:00 +26°C° 0 mm 2 m/s 748 mmHg 65%
16:00 +27°C° 0 mm 2 m/s 748 mmHg 63%
17:00 +26°C° 0 mm 2 m/s 748 mmHg 68%
18:00 +25°C° 0 mm 2 m/s 748 mmHg 72%
19:00 +25°C° 0 mm 2 m/s 748 mmHg 76%
20:00 +24°C° 0 mm 2 m/s 747 mmHg 78%
21:00 +23°C° 0 mm 2 m/s 747 mmHg 79%
22:00 +21°C° 0 mm 2 m/s 747 mmHg 80%
23:00 +20°C° 0.1 mm 2 m/s 747 mmHg 83%

23 Juin, Mercredi

Heure Température Précipitation Vent Pression Humidité
00:00 +20°C° 0.1 mm 2 m/s 747 mmHg 86%
01:00 +19°C° 0.1 mm 2 m/s 747 mmHg 89%
02:00 +20°C° 1.3 mm 1 m/s 747 mmHg 92%
03:00 +20°C° 1.3 mm 1 m/s 747 mmHg 94%
04:00 +20°C° 1.3 mm 1 m/s 748 mmHg 96%
05:00 +20°C° 0.8 mm 1 m/s 747 mmHg 95%
06:00 +20°C° 0.8 mm 2 m/s 747 mmHg 94%
07:00 +20°C° 0.8 mm 2 m/s 747 mmHg 92%
08:00 +22°C° 0 mm 3 m/s 748 mmHg 84%
09:00 +23°C° 0 mm 4 m/s 748 mmHg 75%
10:00 +25°C° 0 mm 5 m/s 748 mmHg 67%
11:00 +26°C° 0 mm 5 m/s 748 mmHg 64%
12:00 +26°C° 0 mm 5 m/s 749 mmHg 62%
13:00 +27°C° 0 mm 6 m/s 749 mmHg 60%
14:00 +24°C° 0 mm 6 m/s 750 mmHg 63%
15:00 +23°C° 0 mm 6 m/s 750 mmHg 66%
16:00 +22°C° 0 mm 6 m/s 751 mmHg 68%
17:00 +21°C° 0 mm 6 m/s 751 mmHg 71%
18:00 +19°C° 0 mm 5 m/s 751 mmHg 74%
19:00 +17°C° 0 mm 5 m/s 751 mmHg 77%
20:00 +17°C° 0 mm 4 m/s 751 mmHg 81%
21:00 +16°C° 0 mm 3 m/s 752 mmHg 85%
22:00 +14°C° 0 mm 2 m/s 752 mmHg 89%
23:00 +14°C° 0 mm 2 m/s 752 mmHg 90%

24 Juin, Jeudi

Heure Température Précipitation Vent Pression Humidité
00:00 +14°C° 0 mm 2 m/s 753 mmHg 91%
01:00 +13°C° 0 mm 2 m/s 753 mmHg 92%
02:00 +13°C° 0 mm 2 m/s 752 mmHg 92%
03:00 +13°C° 0 mm 2 m/s 752 mmHg 92%
04:00 +13°C° 0 mm 2 m/s 752 mmHg 93%
05:00 +15°C° 0 mm 2 m/s 752 mmHg 88%
06:00 +16°C° 0 mm 2 m/s 752 mmHg 84%
07:00 +17°C° 0 mm 2 m/s 752 mmHg 80%
08:00 +18°C° 0 mm 2 m/s 752 mmHg 76%
09:00 +19°C° 0 mm 2 m/s 752 mmHg 71%
10:00 +21°C° 0 mm 2 m/s 752 mmHg 67%
11:00 +23°C° 0 mm 2 m/s 752 mmHg 65%
12:00 +24°C° 0 mm 2 m/s 752 mmHg 63%
13:00 +25°C° 0 mm 2 m/s 751 mmHg 61%
14:00 +25°C° 0 mm 2 m/s 751 mmHg 61%
15:00 +26°C° 0 mm 2 m/s 750 mmHg 61%
16:00 +26°C° 0 mm 2 m/s 750 mmHg 61%
17:00 +24°C° 0.9 mm 3 m/s 749 mmHg 70%
18:00 +22°C° 0.9 mm 3 m/s 749 mmHg 79%
19:00 +21°C° 0.9 mm 4 m/s 748 mmHg 88%
20:00 +20°C° 7.8 mm 4 m/s 748 mmHg 91%
21:00 +19°C° 7.8 mm 5 m/s 748 mmHg 94%
22:00 +17°C° 7.8 mm 6 m/s 749 mmHg 98%
23:00 +17°C° 0.9 mm 5 m/s 749 mmHg 97%

25 Juin, Vendredi

Heure Température Précipitation Vent Pression Humidité
00:00 +16°C° 0.9 mm 5 m/s 749 mmHg 97%
01:00 +16°C° 0.9 mm 5 m/s 750 mmHg 96%
02:00 +16°C° 0 mm 5 m/s 750 mmHg 96%
03:00 +16°C° 0 mm 5 m/s 750 mmHg 96%
04:00 +17°C° 0 mm 4 m/s 750 mmHg 96%
05:00 +17°C° 0 mm 4 m/s 750 mmHg 94%
06:00 +17°C° 0 mm 4 m/s 751 mmHg 92%
07:00 +17°C° 0 mm 4 m/s 751 mmHg 91%
08:00 +18°C° 0 mm 4 m/s 752 mmHg 85%
09:00 +19°C° 0 mm 4 m/s 752 mmHg 79%
10:00 +20°C° 0 mm 4 m/s 752 mmHg 73%
11:00 +20°C° 0 mm 4 m/s 752 mmHg 69%
12:00 +21°C° 0 mm 4 m/s 752 mmHg 66%
13:00 +22°C° 0 mm 3 m/s 752 mmHg 63%
14:00 +22°C° 0 mm 3 m/s 752 mmHg 63%
15:00 +22°C° 0 mm 3 m/s 752 mmHg 64%
16:00 +22°C° 0 mm 3 m/s 752 mmHg 64%
17:00 +21°C° 0 mm 2 m/s 752 mmHg 69%
18:00 +20°C° 0 mm 2 m/s 752 mmHg 73%
19:00 +20°C° 0 mm 2 m/s 751 mmHg 77%
20:00 +18°C° 0 mm 2 m/s 752 mmHg 80%
21:00 +17°C° 0 mm 2 m/s 752 mmHg 83%
22:00 +16°C° 0 mm 2 m/s 753 mmHg 86%
23:00 +16°C° 0 mm 2 m/s 753 mmHg 87%
Voir plus

Nous avons besoin de votre consentement

Meteoprog et ses fournisseurs de services peuvent stocker et accéder à des données personnelles telles que des cookies, des identifiants d'appareils ou d'autres technologies similaires sur votre appareil et traiter ces données pour personnaliser le contenu et les publicités, ainsi que pour fournir des fonctionnalités de médias sociaux et analyser le trafic.

  • Stocker et/ou accéder à des informations sur votre appareil

    Des cookies, des identifiants d'appareils ou d'autres informations peuvent être stockés ou accessibles sur votre appareil aux fins indiquées ci-dessus.

  • Annonces et contenus personnalisés, mesure des annonces et des contenus, connaissance de l'audience et développement de produits

    Les annonces et le contenu peuvent être personnalisés en fonction d'un profil. D'autres données peuvent être ajoutées pour mieux personnaliser les annonces et le contenu. Les performances des publicités et du contenu peuvent être mesurées. Il est possible d'obtenir des informations sur le public qui a vu les publicités et le contenu. Ces données peuvent être utilisées pour développer ou améliorer l'expérience de l'utilisateur, les systèmes et les logiciels.

En cliquant sur "J'accepte", vous autorisez l'utilisation de cookies, des identifiants d'appareils, des balises web ou d'autres technologies similaires. Vos paramètres peuvent être modifiés dans le navigateur de votre appareil.

Dans certains cas, des intérêts légitimes peuvent être invoqués plutôt qu'un consentement. Vous pouvez en savoir plus à ce sujet dans notre Politique de confidentialité et de cookies.